Other Public Products
Issued by NWS Grand Forks, ND

Home | Current Version | Previous Version | Graphics & Text | Print | Product List | Glossary On
Versions: 1 2 3 4 5 6 7 8 9 10 11 12 13 14 15 16 17 18 19 20 21 22 23 24 25 26 27 28 29 30 31 32 33 34 35 36 37 38 39 40 41 42 43 44 45 46 47 48 49 50
336
FPUS83 KFGF 220610
OPUFGF
PRAIRIE TO PINES WEATHER ROUNDUP
NATIONAL WEATHER SERVICE EASTERN NORTH DAKOTA/GRAND FORKS ND
100 AM CDT FRI MAY 22 2015

 **SATELLITE DATA USED TO AUGMENT SKY COVER AT AUTOMATED STATIONS**
 *****  WEATHER ACROSS EASTERN NORTH DAKOTA  *****

CITY           SKY/WX    TMP DP  RH WIND       PRES   REMARKS
GRAND FORKS    CLEAR     45  40  82 CALM      30.13S
6HR MIN TEMP:  44; 6HR MAX TEMP:  67;

GRAND FORKS AF CLEAR     42  40  93 W3        30.13S
GRAND CITY NWS   N/A     45 N/A N/A MISG        N/A
BUXTON         NOT AVBL
DEVILS LAKE    CLEAR     50  39  66 CALM      30.14R
6HR MIN TEMP:  46; 6HR MAX TEMP:  70;

FARGO          CLEAR     49  41  74 CALM      30.13S
6HR MIN TEMP:  48; 6HR MAX TEMP:  68;

WAHPETON ARPT  CLEAR     45  34  65 W3        30.15R
$$

 *****  WEATHER ACROSS CENTRAL AND WESTERN NORTH DAKOTA  *****

CITY           SKY/WX    TMP DP  RH WIND       PRES   REMARKS
JAMESTOWN      CLEAR     51  40  65 S5        30.14S
6HR MIN TEMP:  50; 6HR MAX TEMP:  69;

BISMARCK       PTCLDY    53  42  66 NE7       30.15R
6HR MIN TEMP:  52; 6HR MAX TEMP:  72;

MINOT          CLEAR     52  37  56 SE6       30.13R
6HR MIN TEMP:  51; 6HR MAX TEMP:  73;

MINOT AFB      CLEAR     44  42  93 CALM      30.12R
6HR MIN TEMP:  44; 6HR MAX TEMP:  74;

GARRISON         N/A     50  39  66 CALM      30.14R
6HR MIN TEMP:  50; 6HR MAX TEMP:  73;

WILLISTON      CLEAR     56  35  45 E5        30.12R
6HR MIN TEMP:  56; 6HR MAX TEMP:  74;

DICKINSON      CLEAR     46  34  62 S8        30.12S
6HR MIN TEMP:  44; 6HR MAX TEMP:  70;

HETTINGER      CLEAR     43  32  65 CALM      30.15S
6HR MIN TEMP:  42; 6HR MAX TEMP:  66;

$$

 *****  OTHER OBSERVATIONS NORTHEAST NORTH DAKOTA  *****

CITY           SKY/WX    TMP DP  RH WIND       PRES   REMARKS
WALHALLA       FAIR      46  37  71 CALM      30.13R
LANGDON        FAIR      43  34  70 S7        30.14S
CAVALIER       FAIR      46  43  87 CALM      30.13S
GRAFTON        FAIR      50  43  76 W6        30.14R
CANDO          FAIR      48  36  61 CALM      30.14S
FORT TOTTEN      N/A     55  26  33 SE5       29.95S
ROLLA          FAIR      46  32  57 SW6       30.15S
RUGBY          NOT AVBL
 ***** THE ABOVE OBSERVATIONS ARE NON NWS ARE NOT QUALITY
        CONTROLLED AND MAY MIS-REPORT RAIN FOR SNOW...
$$

 *****  OTHER OBSERVATIONS SOUTHEAST NORTH DAKOTA *****

CITY           SKY/WX    TMP DP  RH WIND       PRES   REMARKS
COOPERSTOWN    NOT AVBL
VALLEY CITY    FAIR      46  37  71 CALM      30.15S
OAKES            N/A     48  41  76 E5        30.15S
GWINNER        NOT AVBL
BUFFALO        NOT AVBL
WYNDMERE         N/A     46  41  81 N1          N/A
 ***** THE ABOVE OBSERVATIONS ARE NON NWS ARE NOT QUALITY
       CONTROLLED AND MAY MIS-REPORT RAIN FOR SNOW...
$$

  *****  WEATHER ACROSS NORTHERN MINNESOTA  *****

CITY           SKY/WX    TMP DP  RH WIND       PRES   REMARKS
FLAG ISLAND    CLEAR     52  43  71 CALM      30.10S
WARROAD        CLEAR     43  37  81 CALM      30.13R
ROSEAU         CLEAR     45  36  70 CALM      30.12S
HALLOCK        CLEAR     46  39  76 CALM      30.12S
THF RVR FALLS  CLEAR     46  36  66 CALM      30.14S
6HR MIN TEMP:  46; 6HR MAX TEMP:  66;

HALSTAD        NOT AVBL
FOSSTON        CLEAR     43  36  75 CALM      30.14S
BAUDETTE       CLEAR     41  38  89 CALM      30.12R
6HR MIN TEMP:  41; 6HR MAX TEMP:  62;

WASKISH        CLEAR     39  37  93 CALM      30.13R
CROOKSTON      CLEAR     54  34  47 E5        30.14S
$$
  *****  WEATHER ACROSS CENTRAL AND WEST MINNESOTA  *****

CITY           SKY/WX    TMP DP  RH WIND       PRES   REMARKS
BEMIDJI        CLEAR     39  34  81 CALM      30.13R
PARK RAPIDS    CLEAR     45  37  73 NW3       30.12S
6HR MIN TEMP:  45; 6HR MAX TEMP:  68;

WADENA         CLEAR     46  37  71 CALM      30.13S
DETROIT LAKES  CLEAR     52  37  58 NW3       30.15S
MOORHEAD       CLEAR     50  39  66 CALM      30.14S
FERGUS FALLS   CLEAR     54  37  54 NE5       30.15R
ELBOW LAKE     FAIR      52  38  58 N5        30.13S
6HR MIN TEMP:  52; 6HR MAX TEMP:  66;

MORRIS MN      CLEAR     52  37  58 N3        30.13R
STAPLES        CLEAR     45  37  76 CALM      30.13S
WHEATON        CLEAR     46  39  76 CALM      30.16S
$$
  *****  WEATHER ELSEWHERE ACROSS MINNESOTA  *****

CITY           SKY/WX    TMP DP  RH WIND       PRES   REMARKS
DULUTH         CLEAR     49  30  48 NW6       30.11R
6HR MIN TEMP:  49; 6HR MAX TEMP:  65;

INTRNTL FALLS  CLEAR     35  33  92 CALM      30.11R
6HR MIN TEMP:  34; 6HR MAX TEMP:  61;

ELY            CLEAR     36  28  75 CALM      30.11R
CLOQUET        CLEAR     43  30  61 NW3       30.11R
BRAINERD       CLEAR     44  40  85 CALM      30.13R
6HR MIN TEMP:  42; 6HR MAX TEMP:  66;

HIBBING        CLEAR     36  30  79 CALM      30.11R
6HR MIN TEMP:  35; 6HR MAX TEMP:  64;

ALEXANDRIA     CLEAR     50  36  58 CALM      30.15R
6HR MIN TEMP:  48; 6HR MAX TEMP:  67;

SAINT CLOUD    CLEAR     46  40  79 NW3       30.12R
6HR MIN TEMP:  44; 6HR MAX TEMP:  69;

MINNEAPOLIS    CLEAR     54  39  57 NW7       30.10R
6HR MIN TEMP:  53; 6HR MAX TEMP:  71;

$$

  *****  WEATHER ACROSS SOUTH DAKOTA  *****

CITY           SKY/WX    TMP DP  RH WIND       PRES   REMARKS
SIOUX FALLS    CLEAR     53  39  59 W6        30.15S
6HR MIN TEMP:  50; 6HR MAX TEMP:  72;

BROOKINGS      CLEAR     48  41  76 CALM      30.18R
WATERTOWN      CLEAR     51  34  52 CALM      30.16R
6HR MIN TEMP:  48; 6HR MAX TEMP:  70;

HURON          CLEAR     53  42  66 NW3       30.15R
6HR MIN TEMP:  50; 6HR MAX TEMP:  75;

SISSETON         N/A     47  38  71 CALM      30.14R
ABERDEEN       CLEAR     50  40  68 SW5       30.15R
6HR MIN TEMP:  47; 6HR MAX TEMP:  74;

MITCHELL       CLEAR     52  41  66 W5        30.16R
PIERRE         CLEAR     52  35  52 S5        30.14S
6HR MIN TEMP:  48; 6HR MAX TEMP:  70;

MOBRIDGE       PTCLDY    52  38  58 SE5       30.12R
RAPID CITY     CLOUDY    49  44  83 E6        30.13S
6HR MIN TEMP:  47; 6HR MAX TEMP:  63;

$$

  *****  SOME WEATHER IN NEARBY STATES *****

CITY           SKY/WX    TMP DP  RH WIND       PRES   REMARKS
GLASGOW MT     CLEAR     51  34  52 E10       30.07R
6HR MIN TEMP:  51; 6HR MAX TEMP:  72;

GREAT FALLS MT CLEAR     50  41  71 E3        29.95S
6HR MIN TEMP:  47; 6HR MAX TEMP:  70;

CHEYENNE WY    CLOUDY    45  42  89 SE15G25   30.09F
6HR MIN TEMP:  45; 6HR MAX TEMP:  52;

SCOTTSBLUFF NE CLOUDY    51  45  79 E13       30.11F
6HR MIN TEMP:  51; 6HR MAX TEMP:  55;

OMAHA NE       PTCLDY    60  40  47 W5        30.19R
6HR MIN TEMP:  60; 6HR MAX TEMP:  72;

DES MOINES IA  CLEAR     56  42  59 W5        30.14R
6HR MIN TEMP:  56; 6HR MAX TEMP:  74;

DAVENPORT IA   CLEAR     50  42  74 W5        30.07R
6HR MIN TEMP:  50; 6HR MAX TEMP:  71;

CHICAGO IL     PTCLDY    59  40  49 SW12      30.01F
6HR MIN TEMP:  58; 6HR MAX TEMP:  67;

EAU CLAIRE WI  CLEAR     46  38  73 CALM      30.07R
6HR MIN TEMP:  44; 6HR MAX TEMP:  70;

LA CROSSE WI   CLEAR     50  44  80 SE3       30.06R
6HR MIN TEMP:  49; 6HR MAX TEMP:  72;

$$

  *****  SOME NATIONAL WEATHER *****

CITY           SKY/WX    TMP DP  RH WIND       PRES   REMARKS
LA GUARDIA NY  CLOUDY    56  45  66 W5        29.86F



USA.gov is the U.S. government's official web portal to all federal, state and local government web resources and services.